ITY332 LIRF-LFPG

Flight info

Callsign ITY332
Flight time N/A
Altitude 36000
Route GILIO DCT SPEZI DCT AOSTA L615 DJL
Aircraft A320/M-SDE3FGHIRWY/LB1

Departure

Time 2026-05-06 10:29
Airport Rome–Fiumicino Leonardo da Vinci International Airport (LIRF)

Arrival

Time N/A
Airport Charles de Gaulle International Airport (LFPG)
Time Latitude Longitude Altitude Speed Heading
2026-05-06 10:04 41.79707 12.25840 14 ft 0 kts 115°
2026-05-06 10:13 41.79707 12.25839 14 ft 0 kts 115°
2026-05-06 10:17 41.79712 12.25825 17 ft 2 kts 116°
2026-05-06 10:17 41.79718 12.25808 16 ft 2 kts 113°
2026-05-06 10:17 41.79722 12.25795 17 ft 1 kts 102°
2026-05-06 10:17 41.79724 12.25787 17 ft 1 kts 81°
2026-05-06 10:18 41.79723 12.25780 14 ft 1 kts 54°
2026-05-06 10:18 41.79720 12.25773 14 ft 1 kts 37°
2026-05-06 10:18 41.79716 12.25769 14 ft 1 kts 30°
2026-05-06 10:18 41.79711 12.25765 14 ft 1 kts 27°
2026-05-06 10:19 41.79707 12.25762 18 ft 1 kts 26°
2026-05-06 10:19 41.79704 12.25760 18 ft 0 kts 26°
2026-05-06 10:20 41.79705 12.25761 18 ft 1 kts 26°
2026-05-06 10:20 41.79756 12.25793 14 ft 15 kts 25°
2026-05-06 10:21 41.79852 12.25822 15 ft 8 kts 353°
2026-05-06 10:21 41.79902 12.25842 14 ft 7 kts 24°
2026-05-06 10:21 41.79942 12.25866 16 ft 6 kts 24°
2026-05-06 10:21 41.79976 12.25886 14 ft 5 kts 24°
2026-05-06 10:22 41.80002 12.25902 14 ft 5 kts 25°
2026-05-06 10:22 41.80090 12.25956 14 ft 16 kts 25°
2026-05-06 10:22 41.80143 12.25989 14 ft 8 kts 25°
2026-05-06 10:22 41.80202 12.26026 14 ft 16 kts 25°
2026-05-06 10:23 41.80333 12.26107 14 ft 23 kts 24°
2026-05-06 10:23 41.80464 12.26174 16 ft 18 kts
2026-05-06 10:23 41.80538 12.26272 16 ft 19 kts 68°
2026-05-06 10:23 41.80590 12.26463 17 ft 25 kts 71°
2026-05-06 10:24 41.80653 12.26692 15 ft 29 kts 69°
2026-05-06 10:24 41.80700 12.26860 14 ft 18 kts 70°
2026-05-06 10:24 41.80733 12.26982 16 ft 3 kts 70°
2026-05-06 10:24 41.80736 12.26992 15 ft 0 kts 70°
2026-05-06 10:25 41.80738 12.26999 14 ft 4 kts 68°
2026-05-06 10:25 41.80774 12.27043 13 ft 9 kts 18°
2026-05-06 10:25 41.80835 12.27027 15 ft 9 kts 339°
2026-05-06 10:26 41.80861 12.27015 13 ft 7 kts 341°
2026-05-06 10:26 41.80886 12.27003 13 ft 6 kts 339°
2026-05-06 10:26 41.80935 12.26977 13 ft 0 kts 335°
2026-05-06 10:26 41.80946 12.26970 13 ft 3 kts 332°
2026-05-06 10:27 41.80960 12.26940 12 ft 4 kts 279°
2026-05-06 10:27 41.80955 12.26918 13 ft 0 kts 248°
2026-05-06 10:28 41.80926 12.26814 13 ft 43 kts 250°
2026-05-06 10:28 41.80740 12.26138 20 ft 110 kts 250°
2026-05-06 10:28 41.80402 12.24925 20 ft 164 kts 249°
2026-05-06 10:28 41.80009 12.23432 533 ft 168 kts 250°
2026-05-06 10:29 41.79581 12.21976 1151 ft 168 kts 249°
2026-05-06 10:29 41.78908 12.20613 1390 ft 191 kts 221°
2026-05-06 10:29 41.77740 12.19601 1741 ft 208 kts 216°
2026-05-06 10:29 41.76453 12.18500 2119 ft 230 kts 210°
2026-05-06 10:30 41.75062 12.17329 2855 ft 240 kts 210°
2026-05-06 10:30 41.73638 12.16116 3746 ft 245 kts 212°
2026-05-06 10:30 41.72196 12.14877 4702 ft 247 kts 213°
2026-05-06 10:30 41.70813 12.13478 5538 ft 253 kts 230°
2026-05-06 10:31 41.70147 12.11322 6410 ft 258 kts 265°
2026-05-06 10:31 41.70568 12.08981 7255 ft 268 kts 298°
2026-05-06 10:31 41.71969 12.07286 8097 ft 282 kts 330°
2026-05-06 10:31 41.73864 12.06475 8981 ft 288 kts 340°
2026-05-06 10:32 41.75625 12.05315 9814 ft 281 kts 315°
2026-05-06 10:32 41.76930 12.03402 10390 ft 288 kts 302°
2026-05-06 10:32 41.78041 12.01064 10626 ft 309 kts 296°
2026-05-06 10:32 41.79110 11.98454 10861 ft 330 kts 294°
2026-05-06 10:33 41.80215 11.95706 11413 ft 339 kts 295°
2026-05-06 10:33 41.81379 11.92927 12103 ft 344 kts 296°
2026-05-06 10:33 41.82605 11.90149 12796 ft 349 kts 297°
2026-05-06 10:33 41.83883 11.87359 13482 ft 353 kts 298°
2026-05-06 10:34 41.85201 11.84549 14116 ft 358 kts 298°
2026-05-06 10:34 41.86401 11.81625 14707 ft 359 kts 290°
2026-05-06 10:34 41.87190 11.78451 15301 ft 359 kts 280°
2026-05-06 10:34 41.87688 11.75154 15897 ft 362 kts 278°
2026-05-06 10:35 41.88174 11.71817 16486 ft 366 kts 278°
2026-05-06 10:35 41.88660 11.68438 17094 ft 370 kts 278°
2026-05-06 10:35 41.89147 11.65077 17708 ft 373 kts 278°
2026-05-06 10:35 41.89817 11.61679 18291 ft 381 kts 287°
2026-05-06 10:36 41.90986 11.58449 18809 ft 389 kts 298°
2026-05-06 10:36 41.92636 11.55534 19349 ft 397 kts 308°
2026-05-06 10:36 41.94550 11.52838 19883 ft 400 kts 309°
2026-05-06 10:36 41.96481 11.50117 20413 ft 403 kts 309°
2026-05-06 10:37 41.98414 11.47384 20923 ft 405 kts 309°
2026-05-06 10:37 42.00364 11.44624 21409 ft 408 kts 308°
2026-05-06 10:37 42.02322 11.41846 21893 ft 411 kts 308°
2026-05-06 10:37 42.04290 11.39045 22364 ft 413 kts 308°
2026-05-06 10:38 42.06272 11.36218 22819 ft 417 kts 308°
2026-05-06 10:38 42.08275 11.33360 23258 ft 420 kts 308°
2026-05-06 10:38 42.10285 11.30491 23668 ft 422 kts 308°
2026-05-06 10:38 42.12307 11.27602 24014 ft 425 kts 308°
2026-05-06 10:39 42.14344 11.24694 24373 ft 427 kts 308°
2026-05-06 10:39 42.16392 11.21768 24724 ft 429 kts 308°
2026-05-06 10:39 42.18445 11.18831 25074 ft 431 kts 307°
2026-05-06 10:39 42.20504 11.15876 25417 ft 433 kts 307°
2026-05-06 10:40 42.22572 11.12909 25749 ft 435 kts 307°
2026-05-06 10:40 42.24653 11.09926 26081 ft 437 kts 307°
2026-05-06 10:40 42.26741 11.06929 26405 ft 439 kts 307°
2026-05-06 10:40 42.28805 11.03958 26716 ft 441 kts 307°
2026-05-06 10:41 42.30903 11.00929 27006 ft 442 kts 307°
2026-05-06 10:41 42.33009 10.97885 27301 ft 444 kts 307°
2026-05-06 10:41 42.35125 10.94825 27587 ft 446 kts 308°
2026-05-06 10:41 42.37435 10.91959 27862 ft 455 kts 316°
2026-05-06 10:42 42.40045 10.89482 28129 ft 460 kts 320°
2026-05-06 10:42 42.42701 10.87051 28389 ft 462 kts 320°
2026-05-06 10:42 42.45366 10.84609 28627 ft 463 kts 320°
2026-05-06 10:42 42.48037 10.82158 28877 ft 464 kts 320°
2026-05-06 10:43 42.50710 10.79697 29218 ft 463 kts 320°
2026-05-06 10:43 42.53374 10.77237 29540 ft 464 kts 319°
2026-05-06 10:43 42.56037 10.74771 29854 ft 464 kts 319°
2026-05-06 10:44 42.61366 10.69829 30451 ft 462 kts 319°
2026-05-06 10:44 42.64019 10.67365 30734 ft 462 kts 319°
2026-05-06 10:44 42.66672 10.64901 31033 ft 461 kts 319°
2026-05-06 10:44 42.69320 10.62446 31318 ft 461 kts 319°
2026-05-06 10:45 42.71934 10.60020 31598 ft 460 kts 319°
2026-05-06 10:45 42.74575 10.57561 31906 ft 460 kts 319°
2026-05-06 10:45 42.77221 10.55093 32201 ft 460 kts 319°
2026-05-06 10:45 42.79861 10.52627 32489 ft 460 kts 319°
2026-05-06 10:46 42.82496 10.50165 32790 ft 459 kts 319°
2026-05-06 10:46 42.85131 10.47698 33086 ft 459 kts 319°
2026-05-06 10:46 42.87764 10.45230 33370 ft 458 kts 319°
2026-05-06 10:46 42.90391 10.42768 33661 ft 458 kts 319°
2026-05-06 10:47 42.93014 10.40307 33948 ft 457 kts 319°
2026-05-06 10:47 42.95629 10.37852 34205 ft 457 kts 319°
2026-05-06 10:47 42.98243 10.35391 34475 ft 456 kts 319°
2026-05-06 10:47 43.00853 10.32929 34726 ft 455 kts 319°
2026-05-06 10:48 43.02578 10.31300 34900 ft 455 kts 319°
2026-05-06 10:48 43.06026 10.28043 35210 ft 454 kts 319°
2026-05-06 10:48 43.08623 10.25592 35441 ft 454 kts 319°
2026-05-06 10:48 43.11223 10.23139 35663 ft 453 kts 319°
2026-05-06 10:49 43.13814 10.20690 35862 ft 453 kts 319°
2026-05-06 10:49 43.18126 10.16601 35944 ft 454 kts 318°
2026-05-06 10:50 43.23353 10.11632 35934 ft 454 kts 318°
2026-05-06 10:50 43.28512 10.06729 35933 ft 454 kts 318°
2026-05-06 10:51 43.33705 10.01776 35931 ft 454 kts 318°
2026-05-06 10:51 43.38884 9.96818 35934 ft 454 kts 318°
2026-05-06 10:52 43.44071 9.91840 35937 ft 454 kts 318°
2026-05-06 10:52 43.49233 9.86892 35934 ft 454 kts 318°
2026-05-06 10:53 43.54419 9.81910 35964 ft 454 kts 317°
2026-05-06 10:53 43.59597 9.76921 35953 ft 454 kts 317°
2026-05-06 10:54 43.64774 9.71925 35963 ft 454 kts 317°
2026-05-06 10:54 43.69953 9.66922 35944 ft 454 kts 317°
2026-05-06 10:55 43.75102 9.61927 35937 ft 454 kts 317°
2026-05-06 10:55 43.80230 9.56845 35933 ft 452 kts 315°
2026-05-06 10:56 43.85199 9.51545 35941 ft 450 kts 314°
2026-05-06 10:56 43.90117 9.46173 35949 ft 450 kts 314°
2026-05-06 10:57 43.95028 9.40855 35914 ft 452 kts 314°
2026-05-06 10:57 44.00015 9.35516 35899 ft 453 kts 314°
2026-05-06 10:58 44.05013 9.30161 35921 ft 454 kts 314°
2026-05-06 10:58 44.10010 9.24782 35900 ft 455 kts 314°
2026-05-06 10:59 44.15013 9.19379 35888 ft 456 kts 314°
2026-05-06 10:59 44.20024 9.13962 35888 ft 456 kts 314°
2026-05-06 11:00 44.25035 9.08531 35914 ft 456 kts 314°
2026-05-06 11:00 44.30046 9.03082 35915 ft 457 kts 313°
2026-05-06 11:01 44.35042 8.97601 35908 ft 456 kts 313°
2026-05-06 11:01 44.39977 8.92029 35902 ft 455 kts 312°
2026-05-06 11:02 44.44884 8.86403 35900 ft 456 kts 312°
2026-05-06 11:02 44.49795 8.80773 35895 ft 455 kts 312°
2026-05-06 11:03 44.54677 8.75179 35891 ft 456 kts 312°
2026-05-06 11:03 44.59596 8.69551 35915 ft 456 kts 312°
2026-05-06 11:04 44.64517 8.63900 35892 ft 457 kts 312°
2026-05-06 11:04 44.69427 8.58239 35886 ft 457 kts 312°
2026-05-06 11:05 44.74349 8.52561 35868 ft 458 kts 312°
2026-05-06 11:05 44.79234 8.46921 35858 ft 458 kts 312°
2026-05-06 11:06 44.84158 8.41210 35859 ft 458 kts 312°
2026-05-06 11:06 44.89086 8.35481 35884 ft 459 kts 312°
2026-05-06 11:07 44.93986 8.29781 35871 ft 459 kts 312°
2026-05-06 11:07 44.98915 8.24036 35865 ft 459 kts 312°
2026-05-06 11:08 45.03837 8.18269 35863 ft 459 kts 312°
2026-05-06 11:08 45.08754 8.12487 35859 ft 459 kts 312°
2026-05-06 11:09 45.13669 8.06698 35885 ft 460 kts 313°
2026-05-06 11:09 45.18594 8.00910 35865 ft 460 kts 313°
2026-05-06 11:10 45.23515 7.95111 35855 ft 460 kts 313°
2026-05-06 11:10 45.28427 7.89292 35857 ft 460 kts 312°
2026-05-06 11:11 45.33335 7.83462 35855 ft 460 kts 313°
2026-05-06 11:11 45.38233 7.77636 35849 ft 460 kts 313°
2026-05-06 11:12 45.43143 7.71790 35871 ft 461 kts 313°
2026-05-06 11:12 45.48055 7.65923 35859 ft 461 kts 313°
2026-05-06 11:13 45.52968 7.60044 35858 ft 461 kts 313°
2026-05-06 11:13 45.57876 7.54153 35848 ft 461 kts 313°
2026-05-06 11:14 45.62787 7.48228 35855 ft 462 kts 313°
2026-05-06 11:14 45.67713 7.42282 35858 ft 463 kts 313°
2026-05-06 11:15 45.72620 7.36358 35885 ft 464 kts 313°
2026-05-06 11:15 45.77554 7.30389 35911 ft 465 kts 313°
2026-05-06 11:16 45.82481 7.24395 35910 ft 464 kts 313°
2026-05-06 11:16 45.87398 7.18398 35899 ft 464 kts 313°
2026-05-06 11:17 45.92312 7.12406 35891 ft 463 kts 313°
2026-05-06 11:17 45.97216 7.06409 35904 ft 463 kts 314°
2026-05-06 11:18 46.02120 7.00393 35885 ft 463 kts 314°
2026-05-06 11:18 46.07015 6.94368 35886 ft 464 kts 314°
2026-05-06 11:19 46.11925 6.88308 35888 ft 464 kts 314°
2026-05-06 11:19 46.16830 6.82250 35909 ft 464 kts 314°
2026-05-06 11:20 46.21741 6.76185 35916 ft 465 kts 314°
2026-05-06 11:20 46.26616 6.70142 35909 ft 465 kts 314°
2026-05-06 11:21 46.31515 6.64046 35888 ft 465 kts 314°
2026-05-06 11:21 46.36419 6.57922 35900 ft 466 kts 314°
2026-05-06 11:22 46.41324 6.51781 35908 ft 466 kts 314°
2026-05-06 11:22 46.46220 6.45620 35900 ft 465 kts 311°
2026-05-06 11:23 46.50549 6.38751 35924 ft 461 kts 306°
2026-05-06 11:23 46.54773 6.31740 35919 ft 461 kts 306°
2026-05-06 11:24 46.59001 6.24731 35924 ft 461 kts 306°
2026-05-06 11:24 46.63234 6.17705 35922 ft 461 kts 306°
2026-05-06 11:25 46.67460 6.10669 35927 ft 462 kts 306°
2026-05-06 11:25 46.71692 6.03625 35942 ft 462 kts 307°
2026-05-06 11:26 46.75919 5.96574 35940 ft 462 kts 307°
2026-05-06 11:26 46.80101 5.89557 35935 ft 461 kts 307°
2026-05-06 11:27 46.84300 5.82474 35928 ft 461 kts 307°
2026-05-06 11:27 46.88501 5.75378 35924 ft 461 kts 307°
2026-05-06 11:28 46.92712 5.68291 35933 ft 462 kts 307°
2026-05-06 11:28 46.96919 5.61197 35922 ft 461 kts 307°
2026-05-06 11:29 47.01117 5.54097 35915 ft 460 kts 307°
2026-05-06 11:29 47.05308 5.46994 35919 ft 460 kts 307°
2026-05-06 11:30 47.09490 5.39876 35906 ft 461 kts 307°
2026-05-06 11:30 47.13647 5.32768 35904 ft 461 kts 308°
2026-05-06 11:31 47.17823 5.25615 35893 ft 461 kts 308°
2026-05-06 11:31 47.22005 5.18460 35882 ft 461 kts 308°
2026-05-06 11:32 47.26207 5.11303 35878 ft 462 kts 310°
2026-05-06 11:32 47.31137 5.05158 35880 ft 466 kts 320°
2026-05-06 11:33 47.36279 4.99346 35878 ft 466 kts 320°
2026-05-06 11:33 47.41391 4.93544 35884 ft 466 kts 320°
2026-05-06 11:34 47.46519 4.87704 35872 ft 466 kts 320°
2026-05-06 11:34 47.51655 4.81847 35872 ft 466 kts 320°
2026-05-06 11:35 47.56786 4.75967 35866 ft 466 kts 320°
2026-05-06 11:35 47.61916 4.70078 35865 ft 466 kts 320°
2026-05-06 11:36 47.66174 4.65185 35866 ft 466 kts 320°
2026-05-06 11:36 47.71301 4.59283 35549 ft 466 kts 320°
2026-05-06 11:36 47.73860 4.56329 35305 ft 466 kts 320°
2026-05-06 11:37 47.76417 4.53371 34861 ft 466 kts 320°
2026-05-06 11:37 47.78990 4.50389 33922 ft 471 kts 320°
2026-05-06 11:37 47.81580 4.47381 32861 ft 474 kts 321°
2026-05-06 11:37 47.84178 4.44364 31901 ft 475 kts 321°
2026-05-06 11:38 47.86791 4.41333 30826 ft 477 kts 321°
2026-05-06 11:38 47.89419 4.38282 29712 ft 481 kts 321°
2026-05-06 11:38 47.92073 4.35198 28476 ft 483 kts 321°
2026-05-06 11:38 47.94723 4.32115 27263 ft 483 kts 321°
2026-05-06 11:39 47.97365 4.29034 26305 ft 480 kts 321°
2026-05-06 11:39 47.99929 4.26035 25595 ft 471 kts 322°
2026-05-06 11:39 48.02495 4.23029 24795 ft 465 kts 322°
2026-05-06 11:39 48.05021 4.20059 24020 ft 460 kts 322°
2026-05-06 11:40 48.07521 4.17112 23233 ft 455 kts 323°
2026-05-06 11:40 48.10000 4.14189 22466 ft 449 kts 323°
2026-05-06 11:40 48.12435 4.11323 21764 ft 443 kts 322°
2026-05-06 11:40 48.14842 4.08490 21091 ft 437 kts 322°
2026-05-06 11:41 48.17213 4.05692 20442 ft 431 kts 322°
2026-05-06 11:41 48.19554 4.02928 19813 ft 426 kts 321°
2026-05-06 11:41 48.21868 4.00192 19214 ft 421 kts 321°
2026-05-06 11:41 48.24141 3.97498 18757 ft 405 kts 322°
2026-05-06 11:42 48.26465 3.95254 18196 ft 392 kts 332°
2026-05-06 11:42 48.28891 3.93356 17932 ft 392 kts 332°
2026-05-06 11:42 48.31287 3.91444 17879 ft 390 kts 332°
2026-05-06 11:42 48.33680 3.89514 17894 ft 390 kts 331°
2026-05-06 11:43 48.36066 3.87585 17890 ft 390 kts 332°
2026-05-06 11:43 48.38457 3.85651 17891 ft 391 kts 331°
2026-05-06 11:43 48.40864 3.83708 17892 ft 393 kts 331°
2026-05-06 11:44 48.45685 3.79819 17891 ft 392 kts 331°
2026-05-06 11:44 48.48091 3.77878 17886 ft 392 kts 330°
2026-05-06 11:44 48.50498 3.75939 17889 ft 392 kts 330°
2026-05-06 11:44 48.52794 3.73720 17891 ft 392 kts 320°
2026-05-06 11:45 48.54752 3.70870 17885 ft 391 kts 309°
2026-05-06 11:45 48.56329 3.67539 17887 ft 390 kts 301°
2026-05-06 11:45 48.57807 3.64101 17881 ft 390 kts 302°
2026-05-06 11:45 48.59267 3.60699 17895 ft 390 kts 302°
2026-05-06 11:46 48.60745 3.57256 17887 ft 390 kts 301°
2026-05-06 11:46 48.62221 3.53822 17733 ft 389 kts 301°
2026-05-06 11:46 48.63688 3.50403 17463 ft 386 kts 301°
2026-05-06 11:46 48.65146 3.47002 17204 ft 384 kts 301°
2026-05-06 11:47 48.66587 3.43626 16941 ft 381 kts 301°
2026-05-06 11:47 48.68020 3.40260 16677 ft 379 kts 301°
2026-05-06 11:47 48.69441 3.36917 16414 ft 376 kts 301°
2026-05-06 11:47 48.70854 3.33591 16155 ft 374 kts 302°
2026-05-06 11:48 48.72261 3.30280 15913 ft 372 kts 302°
2026-05-06 11:48 48.73668 3.26970 15651 ft 371 kts 302°
2026-05-06 11:48 48.75043 3.23724 15399 ft 370 kts 302°
2026-05-06 11:48 48.76428 3.20454 15142 ft 368 kts 302°
2026-05-06 11:49 48.77806 3.17201 14900 ft 367 kts 302°
2026-05-06 11:49 48.79195 3.13917 14662 ft 364 kts 302°
2026-05-06 11:49 48.80558 3.10688 14420 ft 363 kts 303°
2026-05-06 11:49 48.81894 3.07513 14180 ft 361 kts 303°
2026-05-06 11:50 48.83243 3.04309 13938 ft 359 kts 302°
2026-05-06 11:50 48.84645 3.01177 13892 ft 357 kts 308°
2026-05-06 11:50 48.86256 2.98409 13904 ft 340 kts 312°
2026-05-06 11:50 48.87796 2.95860 13908 ft 313 kts 312°
2026-05-06 11:51 48.89238 2.93476 13910 ft 302 kts 312°
2026-05-06 11:51 48.90649 2.91138 13910 ft 299 kts 312°
2026-05-06 11:51 48.92000 2.88791 13905 ft 299 kts 306°
2026-05-06 11:51 48.93007 2.85976 13913 ft 302 kts 290°
2026-05-06 11:52 48.93492 2.82916 13751 ft 302 kts 276°
2026-05-06 11:52 48.93462 2.79748 13496 ft 299 kts 266°
2026-05-06 11:52 48.93288 2.76601 13227 ft 297 kts 266°
2026-05-06 11:52 48.93119 2.73485 12957 ft 295 kts 266°
2026-05-06 11:53 48.92954 2.70380 12692 ft 295 kts 266°
2026-05-06 11:53 48.92790 2.67280 12428 ft 292 kts 266°
2026-05-06 11:53 48.92625 2.64204 12058 ft 292 kts 265°
2026-05-06 11:53 48.92458 2.61115 11643 ft 292 kts 265°
2026-05-06 11:54 48.92293 2.58039 11263 ft 290 kts 265°
2026-05-06 11:54 48.92130 2.55007 10675 ft 285 kts 265°
2026-05-06 11:54 48.91971 2.52076 10105 ft 280 kts 265°
2026-05-06 11:54 48.91810 2.49134 9616 ft 279 kts 265°
2026-05-06 11:55 48.91650 2.46194 9207 ft 278 kts 266°
2026-05-06 11:55 48.91491 2.43297 8754 ft 276 kts 266°
2026-05-06 11:55 48.91330 2.40380 8333 ft 276 kts 266°
2026-05-06 11:55 48.91169 2.37477 7917 ft 275 kts 267°
2026-05-06 11:56 48.91006 2.34597 7503 ft 273 kts 267°
2026-05-06 11:56 48.90841 2.31701 7100 ft 274 kts 268°
2026-05-06 11:56 48.90677 2.28816 6681 ft 273 kts 268°
2026-05-06 11:56 48.90515 2.25989 6538 ft 261 kts 268°
2026-05-06 11:57 48.90360 2.23342 6456 ft 248 kts 269°
2026-05-06 11:57 48.90210 2.20804 6357 ft 235 kts 269°
2026-05-06 11:57 48.90065 2.18376 6250 ft 228 kts 270°
2026-05-06 11:57 48.89928 2.15985 6161 ft 226 kts 270°
2026-05-06 11:58 48.89790 2.13649 6102 ft 216 kts 270°
2026-05-06 11:58 48.89744 2.11450 6046 ft 201 kts 285°
2026-05-06 11:58 48.90181 2.09503 6003 ft 192 kts 306°
2026-05-06 11:58 48.91029 2.07986 5958 ft 186 kts 325°
2026-05-06 11:59 48.92147 2.07047 5917 ft 183 kts 344°
2026-05-06 11:59 48.93398 2.06766 5876 ft 182 kts
2026-05-06 11:59 48.94636 2.07169 5831 ft 183 kts 21°
2026-05-06 11:59 48.95713 2.08229 5797 ft 184 kts 40°
2026-05-06 12:00 48.96448 2.09771 5810 ft 183 kts 59°
2026-05-06 12:00 48.96793 2.11728 5738 ft 202 kts 78°
2026-05-06 12:00 48.96918 2.13911 5677 ft 210 kts 80°
2026-05-06 12:00 48.97041 2.16144 5555 ft 210 kts 80°
2026-05-06 12:01 48.97164 2.18317 5328 ft 201 kts 79°
2026-05-06 12:01 48.97281 2.20368 5088 ft 193 kts 79°
2026-05-06 12:01 48.97396 2.22380 4841 ft 188 kts 79°
2026-05-06 12:01 48.97509 2.24374 4583 ft 184 kts 80°